Location: Cointrin
(46.2167°N, 6.1167°E)
Time: 21:07:37
(UTC+00:00)

COSMOS 2251 DEB - Visible Passes

Search period start: 27 February 2024 00:00
Search period end: 08 March 2024 00:00
Orbit: 707 x 737 km, 74.0° (Epoch: 25 February)

Date Brightness Start Highest point End Pass type
(mag) Time Alt. Az. Time Alt. Az. Time Alt. Az.
27 Feb ? 05:14:56 10° S 05:19:44 45° ESE 05:24:32 10° NNE visible
28 Feb ? 04:25:29 10° SE 04:29:10 21° E 04:32:51 10° NE visible
29 Feb ? 05:13:51 10° S 05:18:53 71° ESE 05:23:55 10° NNE visible
01 Mar ? 04:23:44 10° SSE 04:28:10 32° E 04:32:36 10° NE visible
02 Mar ? 03:35:01 10° SE 03:37:40 14° E 03:40:20 10° ENE visible
02 Mar ? 05:13:00 10° SSW 05:18:03 76° WNW 05:23:07 10° NNE visible
03 Mar ? 04:22:20 10° S 04:27:12 49° ESE 04:32:03 10° NNE visible
04 Mar ? 03:32:42 10° SSE 03:36:34 22° E 03:40:25 10° NE visible
04 Mar ? 05:12:22 10° SW 05:17:16 50° WNW 05:22:10 10° NNE visible
05 Mar ? 04:21:13 10° SSW 04:26:15 77° ESE 04:31:18 10° NNE visible
06 Mar ? 03:32:02 16° SSE 03:35:28 34° ESE 03:40:00 10° NE visible
06 Mar ? 05:11:57 10° SW 05:16:30 33° WNW 05:21:04 10° N visible
07 Mar ? 02:42:48 12° ESE 02:44:54 16° E 02:47:50 10° ENE visible
07 Mar ? 04:22:09 23° SSW 04:25:21 70° WNW 04:30:23 10° NNE visible
